When you browse on this site, cookies collect data to enhance your experience and personalize the content and advertising you see.
Visit our Privacy Policy to learn more. By continuing to use the site, you agree to this use of cookies and data.
  • In Hungary
  • List of Countries
  • For 7 days
  • Water Temperature
  • Satellite Maps
  • Weather Map
  • News
  • Weather Widgets
  • user-avatar
    Login

    Hourly Weather Pecel

    Today, 26 June, Wednesday

    Time Temperature Precipitation Wind Pressure Humidity
    00:00 +24°C° 0 mm 1 mps 747 mmHg 78%
    01:00 +24°C° 0 mm 1 mps 747 mmHg 81%
    02:00 +23°C° 0 mm 1 mps 747 mmHg 81%
    03:00 +23°C° 0 mm 1 mps 747 mmHg 82%
    04:00 +23°C° 0 mm 1 mps 747 mmHg 83%
    05:00 +24°C° 0 mm 1 mps 747 mmHg 79%
    06:00 +25°C° 0 mm 1 mps 747 mmHg 74%
    07:00 +27°C° 0 mm 1 mps 747 mmHg 70%
    08:00 +28°C° 0 mm 1 mps 748 mmHg 65%
    09:00 +29°C° 0 mm 1 mps 748 mmHg 61%
    10:00 +31°C° 0 mm 1 mps 748 mmHg 56%
    11:00 +31°C° 0 mm 1 mps 748 mmHg 53%
    12:00 +32°C° 0 mm 1 mps 748 mmHg 49%
    13:00 +33°C° 0 mm 1 mps 747 mmHg 46%
    14:00 +33°C° 0 mm 1 mps 747 mmHg 46%
    15:00 +33°C° 0 mm 1 mps 746 mmHg 47%
    16:00 +33°C° 0 mm 1 mps 746 mmHg 47%
    17:00 +32°C° 0 mm 1 mps 746 mmHg 52%
    18:00 +31°C° 0 mm 2 mps 745 mmHg 57%
    19:00 +29°C° 0 mm 2 mps 745 mmHg 61%
    20:00 +29°C° 0 mm 2 mps 745 mmHg 64%
    21:00 +28°C° 0 mm 2 mps 745 mmHg 66%
    22:00 +27°C° 0 mm 2 mps 745 mmHg 68%
    23:00 +26°C° 0 mm 2 mps 745 mmHg 70%

    Tomorrow, 27 June, Thursday

    Time Temperature Precipitation Wind Pressure Humidity
    00:00 +26°C° 0 mm 2 mps 745 mmHg 71%
    01:00 +25°C° 0 mm 2 mps 744 mmHg 72%
    02:00 +25°C° 0 mm 2 mps 744 mmHg 73%
    03:00 +24°C° 0 mm 2 mps 744 mmHg 74%
    04:00 +24°C° 0 mm 2 mps 743 mmHg 76%
    05:00 +25°C° 0 mm 2 mps 743 mmHg 73%
    06:00 +26°C° 0 mm 3 mps 743 mmHg 71%
    07:00 +28°C° 0 mm 3 mps 743 mmHg 69%
    08:00 +29°C° 0 mm 3 mps 743 mmHg 65%
    09:00 +31°C° 0 mm 3 mps 743 mmHg 62%
    10:00 +33°C° 0 mm 4 mps 743 mmHg 58%
    11:00 +34°C° 0.1 mm 5 mps 742 mmHg 57%
    12:00 +34°C° 0.1 mm 5 mps 742 mmHg 55%
    13:00 +35°C° 0.1 mm 6 mps 741 mmHg 54%
    14:00 +34°C° 0 mm 7 mps 741 mmHg 52%
    15:00 +33°C° 0 mm 7 mps 741 mmHg 50%
    16:00 +32°C° 0 mm 7 mps 741 mmHg 48%
    17:00 +29°C° 0 mm 6 mps 741 mmHg 53%
    18:00 +28°C° 0 mm 6 mps 741 mmHg 57%
    19:00 +26°C° 0 mm 5 mps 741 mmHg 61%
    20:00 +25°C° 0 mm 5 mps 741 mmHg 54%
    21:00 +23°C° 0 mm 5 mps 742 mmHg 46%
    22:00 +22°C° 0 mm 5 mps 742 mmHg 38%
    23:00 +20°C° 0 mm 4 mps 742 mmHg 43%

    Day after tomorrow, 28 June, Friday

    Time Temperature Precipitation Wind Pressure Humidity
    00:00 +19°C° 0 mm 4 mps 742 mmHg 47%
    01:00 +18°C° 0 mm 3 mps 742 mmHg 51%
    02:00 +17°C° 0 mm 3 mps 743 mmHg 55%
    03:00 +17°C° 0 mm 3 mps 743 mmHg 58%
    04:00 +16°C° 0 mm 2 mps 743 mmHg 61%
    05:00 +17°C° 0 mm 3 mps 743 mmHg 61%
    06:00 +18°C° 0 mm 3 mps 743 mmHg 61%
    07:00 +19°C° 0 mm 3 mps 743 mmHg 61%
    08:00 +21°C° 0 mm 2 mps 743 mmHg 57%
    09:00 +23°C° 0 mm 2 mps 743 mmHg 53%
    10:00 +24°C° 0 mm 2 mps 743 mmHg 49%
    11:00 +25°C° 0 mm 2 mps 743 mmHg 48%
    12:00 +26°C° 0 mm 2 mps 743 mmHg 47%
    13:00 +26°C° 0 mm 2 mps 743 mmHg 46%
    14:00 +26°C° 0 mm 2 mps 743 mmHg 47%
    15:00 +26°C° 0 mm 3 mps 743 mmHg 48%
    16:00 +26°C° 0 mm 3 mps 743 mmHg 48%
    17:00 +25°C° 0 mm 3 mps 743 mmHg 53%
    18:00 +24°C° 0 mm 3 mps 743 mmHg 57%
    19:00 +21°C° 0 mm 3 mps 743 mmHg 61%
    20:00 +20°C° 0 mm 2 mps 743 mmHg 63%
    21:00 +19°C° 0 mm 2 mps 743 mmHg 65%
    22:00 +19°C° 0 mm 1 mps 744 mmHg 68%
    23:00 +19°C° 0 mm 1 mps 744 mmHg 69%

    29 June, Saturday

    Time Temperature Precipitation Wind Pressure Humidity
    00:00 +18°C° 0 mm 1 mps 744 mmHg 70%
    01:00 +18°C° 0 mm 1 mps 744 mmHg 71%
    02:00 +18°C° 0 mm 1 mps 744 mmHg 72%
    03:00 +16°C° 0 mm 1 mps 744 mmHg 74%
    04:00 +16°C° 0 mm 1 mps 744 mmHg 75%
    05:00 +18°C° 0 mm 1 mps 744 mmHg 73%
    06:00 +19°C° 0 mm 1 mps 744 mmHg 70%
    07:00 +21°C° 0 mm 1 mps 744 mmHg 67%
    08:00 +22°C° 0 mm 1 mps 744 mmHg 63%
    09:00 +23°C° 0 mm 1 mps 745 mmHg 59%
    10:00 +24°C° 0 mm 1 mps 745 mmHg 54%
    11:00 +25°C° 0 mm 2 mps 745 mmHg 51%
    12:00 +26°C° 0 mm 2 mps 745 mmHg 47%
    13:00 +26°C° 0 mm 2 mps 744 mmHg 43%
    14:00 +26°C° 0 mm 2 mps 744 mmHg 44%
    15:00 +26°C° 0 mm 2 mps 744 mmHg 44%
    16:00 +26°C° 0 mm 2 mps 744 mmHg 45%
    17:00 +25°C° 0 mm 2 mps 744 mmHg 50%
    18:00 +24°C° 0 mm 2 mps 744 mmHg 55%
    19:00 +23°C° 0 mm 2 mps 744 mmHg 60%
    20:00 +21°C° 0 mm 2 mps 745 mmHg 62%
    21:00 +19°C° 0 mm 2 mps 745 mmHg 64%
    22:00 +18°C° 0 mm 3 mps 745 mmHg 65%
    23:00 +18°C° 0 mm 2 mps 745 mmHg 64%

    30 June, Sunday

    Time Temperature Precipitation Wind Pressure Humidity
    00:00 +17°C° 0 mm 2 mps 745 mmHg 63%
    01:00 +18°C° 0 mm 1 mps 745 mmHg 62%
    02:00 +18°C° 0 mm 1 mps 745 mmHg 62%
    03:00 +16°C° 0 mm 1 mps 745 mmHg 63%
    04:00 +16°C° 0 mm 1 mps 745 mmHg 64%
    05:00 +18°C° 0 mm 1 mps 745 mmHg 61%
    06:00 +20°C° 0 mm 1 mps 745 mmHg 58%
    07:00 +21°C° 0 mm 1 mps 746 mmHg 55%
    08:00 +23°C° 0 mm 1 mps 746 mmHg 52%
    09:00 +24°C° 0 mm 2 mps 746 mmHg 49%
    10:00 +25°C° 0 mm 2 mps 746 mmHg 46%
    11:00 +26°C° 0 mm 3 mps 746 mmHg 45%
    12:00 +27°C° 0 mm 3 mps 746 mmHg 45%
    13:00 +28°C° 0 mm 3 mps 745 mmHg 44%
    14:00 +28°C° 0 mm 3 mps 745 mmHg 45%
    15:00 +28°C° 0 mm 3 mps 745 mmHg 46%
    16:00 +28°C° 0 mm 3 mps 745 mmHg 47%
    17:00 +26°C° 0 mm 3 mps 744 mmHg 51%
    18:00 +25°C° 0 mm 2 mps 744 mmHg 56%
    19:00 +24°C° 0 mm 2 mps 744 mmHg 61%
    20:00 +23°C° 0 mm 2 mps 744 mmHg 63%
    21:00 +21°C° 0 mm 2 mps 744 mmHg 65%
    22:00 +20°C° 0 mm 2 mps 744 mmHg 66%
    23:00 +21°C° 0 mm 1 mps 744 mmHg 69%

    1 July, Monday

    Time Temperature Precipitation Wind Pressure Humidity
    00:00 +20°C° 0 mm 1 mps 744 mmHg 71%
    01:00 +19°C° 0 mm 1 mps 744 mmHg 73%
    02:00 +19°C° 0 mm 1 mps 744 mmHg 75%
    03:00 +19°C° 0 mm 1 mps 744 mmHg 76%
    04:00 +18°C° 0 mm 1 mps 744 mmHg 77%
    05:00 +19°C° 0 mm 2 mps 744 mmHg 72%
    06:00 +20°C° 0 mm 2 mps 744 mmHg 68%
    07:00 +23°C° 0 mm 2 mps 744 mmHg 63%
    08:00 +24°C° 0 mm 3 mps 744 mmHg 59%
    09:00 +26°C° 0 mm 3 mps 744 mmHg 54%
    10:00 +27°C° 0 mm 3 mps 744 mmHg 49%
    11:00 +28°C° 0 mm 3 mps 743 mmHg 47%
    12:00 +29°C° 0 mm 3 mps 743 mmHg 45%
    13:00 +30°C° 0 mm 3 mps 742 mmHg 44%
    14:00 +30°C° 0 mm 4 mps 742 mmHg 45%
    15:00 +30°C° 0 mm 4 mps 742 mmHg 47%
    16:00 +30°C° 0 mm 4 mps 741 mmHg 49%
    17:00 +29°C° 0 mm 3 mps 741 mmHg 54%
    18:00 +27°C° 0 mm 3 mps 740 mmHg 60%
    19:00 +26°C° 0 mm 3 mps 740 mmHg 65%
    20:00 +25°C° 0 mm 3 mps 740 mmHg 68%
    21:00 +24°C° 0 mm 2 mps 740 mmHg 70%
    22:00 +23°C° 0 mm 2 mps 740 mmHg 73%
    23:00 +23°C° 0 mm 2 mps 740 mmHg 74%
    Show more